CAPE
nan nan nan nan nan nan nan 1 nan nan nan 2 2 2 4 12 13 13 23 15 15 13 15 15 15 16 31 66 79 79 82 83 79 79 78 80 79 79 80 82 82 84 91 91 91 92 100 99 99 104 110 117 120 120 128 142 142 155 172 199 199 232 250 268 268 292 325 353 364 364 357 351 340 340 329 317 313 313 314 312 312 330 337 340 340 333
nan nan nan nan nan nan nan 2 1 1 0 0 3 3 5 5 8 8 16 20 20 18 16 19 19 21 18 38 65 65 66 66 67 67 69 69 72 72 73 74 74 73 81 86 86 88 90 95 95 101 108 111 122 122 133 142 142 156 174 187 187 208 211 229 229 243 265 291 307 307 306 308 311 311 301 302 318 318 329 356 356 364 361 339 339 332
nan nan nan 0 0 nan nan 0 4 4 5 2 5 5 8 11 13 13 12 13 13 20 18 19 19 16 10 26 50 50 53 56 62 62 63 63 62 62 64 63 63 66 71 78 78 80 88 93 93 97 106 114 123 123 133 142 142 152 162 168 168 171 177 179 179 193 213 228 242 242 252 269 271 271 277 299 332 332 358 366 366 370 365 352 352 337
0 nan nan 2 2 1 1 0 4 4 7 8 13 13 13 15 19 19 19 18 18 22 17 12 12 6 5 10 32 32 48 53 56 56 55 57 58 58 56 59 59 65 69 77 77 84 89 95 95 101 108 116 124 124 135 139 139 145 143 149 149 152 155 163 163 176 181 196 204 204 224 236 246 246 259 297 313 313 348 343 343 347 323 345 345 370
3 1 0 2 2 3 5 5 5 5 13 15 17 17 18 22 28 28 33 27 27 16 9 7 7 3 2 5 26 26 40 45 49 49 49 51 53 53 54 60 60 68 71 80 80 87 90 96 96 105 109 118 126 126 125 125 125 128 132 138 138 144 148 160 160 171 176 187 202 202 207 211 225 225 238 260 281 281 292 311 311 301 292 335 335 362
4 5 4 4 4 4 6 10 14 14 17 15 21 21 27 27 25 25 19 19 19 15 8 6 6 2 0 0 17 17 33 37 42 42 46 50 55 55 59 65 65 69 76 84 84 88 94 97 97 100 104 107 109 109 112 111 111 114 118 130 130 142 153 154 154 165 175 175 174 174 178 188 196 196 209 218 226 226 238 249 249 257 271 304 304 333
5 7 8 7 7 6 10 12 16 16 13 19 22 22 25 24 17 17 18 16 16 13 8 4 4 1 0 1 14 14 26 28 36 36 42 49 57 57 60 64 64 72 77 85 85 90 91 93 93 92 95 95 97 97 99 100 100 107 114 119 119 133 141 144 144 147 157 154 153 153 155 161 166 166 168 176 187 187 201 212 212 220 235 265 265 294
10 11 17 12 12 16 19 14 22 22 30 28 16 16 15 13 12 12 19 22 22 13 2 0 0 0 nan nan nan nan nan 1 2 2 11 23 43 43 51 63 63 71 77 79 79 80 82 81 81 83 84 86 86 86 88 90 90 95 97 101 101 105 109 120 120 123 124 129 133 133 140 141 144 144 147 153 161 161 176 188 188 212 238 255 255 273
15 15 15 18 18 27 26 26 29 29 30 22 15 15 11 14 12 12 11 8 8 10 2 1 1 nan nan 0 nan nan 6 13 7 7 13 8 13 13 38 58 58 67 73 75 75 74 73 75 75 76 77 77 83 83 83 80 80 82 82 87 87 91 98 106 106 116 123 126 133 133 134 139 142 142 146 154 157 157 168 183 183 202 221 248 248 278
23 20 22 18 18 20 33 42 42 42 26 17 18 18 18 13 6 6 6 2 2 1 1 2 2 2 2 1 1 1 7 17 47 47 64 47 65 65 48 39 39 38 61 65 65 68 66 67 67 68 68 69 73 73 74 68 68 69 71 76 76 81 90 101 101 111 120 126 123 123 128 134 138 138 146 149 152 152 165 175 175 180 204 229 229 251
24 19 19 18 18 31 38 35 22 22 24 14 11 11 6 7 10 10 3 1 1 1 1 3 3 4 5 4 4 4 7 5 9 9 32 42 48 48 43 39 39 44 52 52 52 51 50 53 53 56 56 57 59 59 56 59 59 61 68 73 73 83 86 96 96 105 115 125 125 125 135 138 146 146 150 154 158 158 160 166 166 166 185 203 203 229
19 14 25 39 39 30 27 15 11 11 10 8 7 7 7 9 16 16 5 2 2 3 4 4 4 6 7 7 11 11 8 6 4 4 6 13 19 19 15 12 12 17 26 30 30 33 40 43 43 45 42 40 49 49 50 48 48 59 65 73 73 79 87 100 100 110 124 134 142 142 152 156 165 165 163 165 162 162 162 161 161 167 176 196 196 219
26 25 35 29 29 16 17 9 9 9 10 7 6 6 5 4 8 8 10 6 6 6 5 4 4 5 10 12 13 13 11 7 5 5 5 6 5 5 3 2 2 1 2 2 2 2 20 33 33 35 35 35 43 43 49 49 49 56 66 76 76 83 95 106 106 118 131 148 152 152 165 168 171 171 169 166 168 168 161 164 164 165 180 196 196 220
24 23 16 12 12 16 12 6 5 5 5 6 5 5 5 4 6 6 10 8 8 8 11 10 10 8 13 13 16 16 11 6 5 5 6 5 4 4 4 3 3 1 1 0 0 0 12 16 16 9 26 28 34 34 39 51 51 61 70 81 81 93 105 117 117 127 135 147 148 148 156 158 157 157 163 161 160 160 165 171 171 171 182 197 197 212
18 15 12 14 14 10 6 8 5 5 5 5 5 5 5 7 9 9 8 8 8 10 17 21 21 15 12 6 9 9 7 5 5 5 5 5 8 8 5 4 4 2 1 1 1 1 11 8 8 2 4 12 18 18 32 46 46 72 81 93 93 101 108 115 115 121 126 132 137 137 141 143 149 149 150 156 159 159 166 170 170 170 178 192 192 206
19 17 16 17 17 10 6 4 5 5 5 6 6 6 9 12 12 12 22 16 16 19 17 16 16 15 10 6 7 7 5 6 4 4 0 3 5 5 4 2 2 1 1 1 1 1 4 2 2 1 3 17 36 36 49 59 59 76 83 90 90 95 99 105 105 112 115 125 133 133 132 139 142 142 144 150 153 153 158 157 157 162 174 181 181 189
9 9 14 17 17 10 6 6 7 7 7 7 7 7 6 12 16 16 24 21 21 25 19 11 11 11 6 3 5 5 7 5 5 5 1 2 3 3 6 4 4 3 1 1 1 1 1 0 0 3 5 26 44 44 52 62 62 77 82 87 87 90 94 99 99 105 112 122 130 130 128 132 139 139 138 141 145 145 148 151 151 161 165 176 176 186
10 10 14 13 13 8 5 5 7 7 11 8 9 9 12 14 14 14 15 14 14 22 18 17 17 9 5 2 2 2 7 4 4 4 4 4 2 2 5 4 4 2 1 2 2 1 1 3 3 5 11 41 48 48 55 66 66 74 80 82 82 83 92 97 97 104 116 122 123 123 126 130 133 133 132 135 135 135 137 145 145 151 164 170 170 178
16 16 16 12 12 9 7 8 7 7 11 12 20 20 22 21 17 17 20 19 19 18 13 12 12 9 6 5 2 2 4 5 4 4 2 6 4 4 3 4 4 3 2 2 2 3 2 7 7 23 35 46 49 49 55 63 63 69 75 78 78 82 86 92 92 101 109 113 116 116 117 122 126 126 127 131 136 136 141 147 147 157 162 173 173 178
18 14 13 10 10 12 13 14 16 16 19 22 23 23 28 25 22 22 18 15 15 13 14 9 9 8 9 7 3 3 2 5 2 2 2 6 5 5 2 3 3 4 1 1 1 2 4 8 8 17 30 39 41 41 46 53 53 58 66 70 70 73 78 81 81 88 94 99 103 103 104 106 112 112 118 120 126 126 133 141 141 151 158 167 167 169
19 16 14 14 14 13 14 15 27 27 35 42 30 30 30 23 17 17 15 16 16 18 18 11 11 10 9 5 3 3 5 5 3 3 4 3 4 4 1 2 2 2 2 2 2 4 7 6 6 6 16 29 36 36 40 43 43 52 60 63 63 67 67 71 71 73 80 81 86 86 88 94 98 98 101 108 111 111 117 128 128 135 147 154 154 160
18 18 26 24 24 15 20 24 39 39 49 35 27 27 27 11 14 14 15 16 16 19 20 18 18 13 11 6 4 4 5 5 3 3 1 6 3 3 1 1 1 2 4 3 3 5 5 4 4 1 12 27 32 32 36 39 39 46 54 57 57 58 60 63 63 63 66 69 76 76 76 81 85 85 93 101 108 108 114 125 125 132 139 144 144 147
19 20 21 19 19 18 23 22 38 38 53 29 23 23 12 9 13 13 17 18 18 22 17 17 17 15 12 11 9 9 5 4 3 3 nan 1 1 1 1 2 2 4 4 3 3 3 3 1 1 1 9 28 29 29 30 34 34 40 44 47 47 48 48 47 47 49 53 58 64 64 68 74 82 82 90 96 105 105 116 127 127 138 143 146 146 158
20 23 22 18 18 17 29 37 35 35 34 22 15 15 18 18 15 15 22 20 20 16 17 17 17 11 8 6 3 3 1 4 3 3 1 3 5 5 2 4 4 3 2 1 1 1 1 0 0 0 2 20 23 23 27 30 30 33 35 37 37 40 40 39 39 41 46 53 60 60 65 72 80 80 83 92 102 102 111 118 118 132 138 139 139 150
20 22 22 23 23 34 48 46 42 42 24 14 16 16 20 33 37 37 28 21 21 16 14 7 7 9 5 5 1 1 0 3 4 4 3 4 4 4 2 2 2 2 1 1 1 1 1 0 0 0 1 7 18 18 22 25 25 24 26 30 30 31 33 33 33 36 41 47 54 54 60 67 72 72 79 80 86 86 94 105 105 108 118 115 115 127
29 28 27 50 50 101 112 102 71 71 48 23 20 20 19 29 29 29 22 16 16 12 11 9 9 7 3 2 1 1 0 4 3 3 2 1 3 3 2 2 2 2 3 3 3 2 1 0 0 nan nan 1 12 12 16 17 17 19 19 24 24 25 27 27 27 29 33 38 45 45 52 55 62 62 67 71 81 81 87 91 91 98 101 101 101 105
70 90 110 112 112 100 76 63 66 66 78 67 36 36 23 22 19 19 15 9 9 9 12 9 9 6 4 2 1 1 0 1 2 2 2 3 5 5 3 3 3 4 3 4 4 3 3 1 1 0 nan nan 1 1 11 12 12 14 16 16 16 17 18 20 20 24 26 30 34 34 42 50 54 54 59 66 68 68 77 86 86 91 95 93 93 96
83 88 72 58 58 48 48 50 56 56 61 66 75 75 46 20 14 14 10 7 7 12 9 10 10 8 5 2 1 1 1 2 1 1 3 3 5 5 5 3 3 4 5 5 5 6 13 4 4 0 nan nan nan nan 4 8 8 10 11 11 11 13 14 15 15 17 20 24 28 28 34 40 48 48 53 60 68 68 73 82 82 88 90 79 79 55
56 44 36 34 34 33 36 40 42 42 45 48 55 55 38 14 10 10 9 9 9 9 7 10 10 8 4 4 2 2 1 0 0 0 2 3 6 6 4 1 1 4 2 6 6 6 5 2 2 0 nan 0 0 0 1 5 5 5 7 8 8 9 10 11 11 14 16 18 23 23 27 34 41 41 48 55 63 63 69 79 79 81 75 61 61 48
18 17 17 18 18 21 20 15 24 24 35 38 42 42 31 13 10 10 8 11 11 10 11 10 10 9 4 5 3 3 0 nan nan nan 3 5 5 5 2 2 2 2 1 7 7 4 1 1 1 0 0 1 0 0 nan 1 1 0 1 5 5 5 7 7 7 9 14 17 20 20 24 30 38 38 46 49 57 57 63 72 72 65 45 34 34 39
2 1 1 2 2 5 6 6 13 13 26 32 31 31 22 9 7 7 8 13 13 12 10 8 8 9 5 2 5 5 nan nan nan nan 1 5 5 5 4 4 4 7 6 2 2 2 1 nan nan 0 1 2 0 0 0 nan nan nan nan nan nan 0 4 4 4 6 12 15 17 17 22 26 32 32 40 49 54 54 58 65 65 55 28 21 21 21
0 0 0 1 1 2 2 3 3 3 3 4 4 4 8 9 8 8 6 7 7 9 7 9 9 7 7 3 2 2 1 nan 0 0 7 1 8 8 11 7 7 7 5 4 4 0 0 1 1 1 0 1 0 0 0 0 0 0 0 nan nan nan 0 1 1 3 4 9 11 11 12 14 20 20 27 35 39 39 46 48 48 49 23 7 7 15
2 2 2 3 3 2 3 3 3 3 3 2 2 2 3 4 8 8 6 5 5 5 3 5 5 6 8 8 5 5 2 nan 2 2 12 3 6 6 8 6 6 5 5 5 5 4 2 2 2 2 1 0 0 0 0 0 0 1 0 0 0 nan nan 0 0 0 1 2 4 4 8 10 13 13 18 25 31 31 37 42 42 45 41 9 9 9
3 6 5 4 4 2 2 2 2 2 2 2 3 3 3 3 3 3 4 3 3 2 2 3 3 3 3 7 5 5 1 nan 3 3 10 2 2 2 5 7 7 4 3 3 3 4 4 3 3 3 1 0 0 0 nan nan nan 0 1 0 0 nan nan nan nan nan nan nan nan nan 0 nan 7 7 9 16 23 23 30 37 37 45 55 29 29 14
4 5 4 3 3 3 3 2 3 3 3 3 4 4 4 2 2 2 4 3 3 3 1 0 0 0 1 0 4 4 2 nan 2 2 9 2 6 6 1 3 3 1 1 4 4 2 3 4 4 6 3 0 0 0 nan nan nan 0 0 0 0 nan nan nan nan nan nan nan nan nan nan nan nan nan 2 9 17 17 28 36 36 43 50 59 59 40
5 6 5 4 4 4 3 4 4 4 4 3 3 3 3 3 2 2 2 2 2 4 6 3 3 0 nan 0 2 2 4 1 4 4 7 1 0 0 nan 1 1 2 0 3 3 3 2 3 3 7 7 2 1 1 nan nan nan 0 nan 0 0 0 0 0 0 nan nan nan nan nan nan nan 1 1 2 12 21 21 29 34 34 39 44 52 52 55
6 5 5 5 5 4 4 4 3 3 3 2 1 1 2 3 1 1 2 5 5 6 4 9 9 6 11 0 0 0 4 2 3 3 5 2 0 0 nan 1 1 4 nan 0 0 2 2 1 1 6 4 2 0 0 0 0 0 0 0 0 0 0 nan nan nan nan 0 1 0 0 0 1 1 1 3 13 17 17 24 32 32 33 39 45 45 47
7 7 5 4 4 3 3 3 3 3 1 0 0 0 2 2 3 3 1 5 5 9 5 1 1 4 17 22 14 14 9 10 5 5 2 2 nan nan 0 2 2 5 1 0 0 1 0 0 0 3 4 1 4 4 4 1 1 0 1 1 1 1 nan nan nan 0 1 2 2 2 2 1 0 0 1 2 2 2 3 5 5 19 31 34 34 42
6 6 5 5 5 4 2 3 3 3 1 1 1 1 1 2 4 4 5 3 3 4 5 3 3 3 4 9 17 17 13 8 2 2 1 0 0 0 0 0 0 1 2 1 1 1 0 0 0 0 0 1 2 2 2 1 1 1 1 1 1 0 nan nan nan 1 1 0 1 1 1 nan 0 0 nan nan 0 0 1 2 2 7 10 8 8 22
7 5 5 5 5 3 3 5 3 3 2 3 4 4 2 2 3 3 4 3 3 4 4 5 5 3 4 6 6 6 5 1 4 4 1 nan nan nan nan nan nan 1 1 0 0 0 0 0 0 1 2 nan 2 2 3 2 2 1 4 0 0 0 nan nan nan nan nan nan nan nan 0 0 1 1 0 0 1 1 1 0 0 3 6 1 1 0
8 5 4 3 3 4 3 2 2 2 3 3 2 2 1 1 2 2 2 3 3 4 3 5 5 3 2 2 1 1 1 1 2 2 0 nan nan nan nan nan nan nan 0 0 0 1 0 0 0 1 1 2 5 5 5 2 2 6 8 1 1 0 nan 0 0 0 nan nan nan nan 1 2 3 3 1 2 1 1 2 1 1 2 5 1 1 nan
9 5 3 1 1 3 2 3 5 5 5 3 0 0 0 1 2 2 5 4 4 4 3 4 4 2 2 0 nan nan nan 0 0 0 nan nan nan nan nan nan nan nan nan 0 0 1 4 7 7 5 4 4 1 1 2 2 2 4 5 1 1 1 1 1 1 nan nan nan nan nan 3 2 1 1 1 1 2 2 5 2 2 7 8 0 0 0
7 4 3 2 2 1 4 8 9 9 6 3 0 0 0 1 2 2 4 3 3 4 3 2 2 2 3 1 nan nan nan nan 0 0 0 nan 0 0 0 nan nan nan nan nan nan 1 7 11 11 9 6 5 3 3 2 4 4 3 2 2 2 1 0 nan nan nan nan nan nan nan 0 1 0 0 0 1 2 2 2 7 7 20 17 3 3 1
5 4 4 3 3 1 5 5 5 5 2 1 1 1 0 3 5 5 5 3 3 4 3 1 1 3 4 3 1 1 nan nan nan nan nan 2 3 3 3 1 1 nan nan nan nan 1 6 6 6 3 5 5 5 5 3 2 2 1 0 1 1 1 0 nan nan nan nan nan nan nan nan 0 0 0 1 1 0 0 0 0 0 1 12 6 6 1
3 4 4 4 4 4 4 3 3 3 1 1 2 2 0 3 7 7 6 2 2 4 1 1 1 3 3 2 1 1 0 nan nan nan nan 2 9 9 7 3 3 0 nan nan nan 1 0 2 2 3 3 3 3 3 1 2 2 1 1 1 1 1 nan 0 0 nan nan nan nan nan nan 1 1 1 0 0 nan nan nan 0 0 1 7 5 5 2
3 4 5 5 5 3 3 1 1 1 0 1 1 1 2 3 3 3 4 3 3 3 2 1 1 1 2 2 1 1 1 0 nan nan nan 1 4 4 6 5 5 1 nan 0 0 3 1 1 1 2 2 2 1 1 1 1 1 1 1 1 1 1 0 0 0 nan nan nan nan nan 0 2 1 1 0 nan nan nan 0 1 1 2 5 6 6 2
4 4 4 5 5 3 2 2 1 1 0 1 2 2 4 4 3 3 4 3 3 1 3 2 2 1 1 2 0 0 1 2 1 1 1 1 2 2 4 6 6 7 1 1 1 3 5 5 5 8 3 1 1 1 1 1 1 1 1 0 0 nan nan nan nan nan nan nan 0 0 2 3 0 0 0 0 0 0 2 3 3 4 7 8 8 5
4 3 2 3 3 3 1 2 1 1 1 1 2 2 3 2 3 3 2 2 2 1 3 1 1 1 1 2 1 1 2 2 2 2 2 2 3 3 5 4 4 6 7 9 9 11 10 12 12 14 8 3 1 1 1 0 0 0 1 0 0 nan nan nan nan nan nan 0 1 1 3 2 1 1 0 1 1 1 1 3 3 4 2 5 5 8
4 2 2 4 4 5 4 2 1 1 1 1 2 2 2 4 12 12 2 1 1 1 0 1 1 2 3 3 2 2 4 2 2 2 3 2 4 4 8 8 8 5 5 8 8 9 9 12 12 11 4 3 1 1 1 0 0 0 1 1 1 1 0 0 0 0 0 1 2 2 2 0 0 0 nan 0 1 1 1 0 0 0 0 4 4 5
2 2 2 3 3 3 4 3 3 3 3 4 1 1 2 2 2 2 1 1 1 0 1 0 0 1 3 4 3 3 3 2 2 2 3 2 4 4 6 8 8 6 4 5 5 3 4 7 7 8 6 2 1 1 1 1 1 3 4 4 4 1 0 0 0 1 1 1 1 1 2 2 0 0 0 1 3 3 1 nan nan nan nan 0 0 1
3 3 2 2 2 3 4 2 3 3 3 3 2 2 2 2 2 2 1 1 1 1 1 0 0 1 2 3 4 4 5 2 1 1 1 1 2 2 4 7 7 7 5 2 2 2 1 0 0 0 0 4 5 5 3 5 5 3 4 1 1 1 0 1 1 2 3 1 1 1 3 3 2 2 1 1 2 2 0 nan nan nan nan nan nan 1
CIN
nan nan nan nan nan nan nan 0 nan nan nan 0 0 0 0 0 0 0 0 0 0 0 0 0 0 0 0 0 0 0 0 0 0 0 0 0 0 0 0 0 0 0 0 0 0 0 0 0 0 0 0 0 0 0 0 0 0 0 0 0 0 0 0 0 0 0 0 0 0 0 0 0 0 0 0 0 0 0 0 0 0 0 0 0 0 0
nan nan nan nan nan nan nan 0 0 0 0 0 0 0 0 0 0 0 0 0 0 0 0 0 0 0 0 0 0 0 0 0 0 0 0 0 0 0 0 0 0 0 0 0 0 0 0 0 0 0 0 0 0 0 0 0 0 0 0 0 0 0 0 0 0 0 0 0 0 0 0 0 0 0 0 0 0 0 0 0 0 0 0 0 0 0
nan nan nan 0 0 nan nan 0 0 0 0 0 0 0 0 0 0 0 0 0 0 0 0 0 0 0 0 0 0 0 0 0 0 0 0 0 0 0 0 0 0 0 0 0 0 0 0 0 0 0 0 0 0 0 0 0 0 0 0 0 0 0 0 0 0 0 0 0 0 0 0 0 0 0 0 0 0 0 0 0 0 0 0 0 0 0
0 nan nan 0 0 0 0 0 0 0 0 0 0 0 0 0 0 0 0 0 0 0 0 0 0 0 0 0 0 0 0 0 0 0 0 0 0 0 0 0 0 0 0 0 0 0 0 0 0 0 0 0 0 0 0 0 0 0 0 0 0 0 0 0 0 0 0 0 0 0 0 0 0 0 0 0 0 0 0 0 0 0 0 0 0 0
0 0 0 0 0 0 0 0 0 0 0 0 0 0 0 0 0 0 0 0 0 0 0 0 0 0 0 0 0 0 0 0 0 0 0 0 0 0 0 0 0 0 0 0 0 0 0 0 0 0 0 0 0 0 0 0 0 0 0 0 0 0 0 0 0 0 0 0 0 0 0 0 0 0 0 0 0 0 0 0 0 0 0 0 0 0
0 0 0 0 0 0 0 0 0 0 0 0 0 0 0 0 0 0 0 0 0 0 0 0 0 0 0 0 0 0 0 0 0 0 0 0 0 0 0 0 0 0 0 0 0 0 0 0 0 0 0 0 0 0 0 0 0 0 0 0 0 0 0 0 0 0 0 0 0 0 0 0 0 0 0 0 0 0 0 0 0 0 0 0 0 0
0 0 0 0 0 0 0 0 0 0 0 0 0 0 0 0 0 0 0 0 0 0 0 0 0 0 0 0 0 0 0 0 0 0 0 0 0 0 0 0 0 0 0 0 0 0 0 0 0 0 0 0 0 0 0 0 0 0 0 0 0 0 0 0 0 0 0 0 0 0 0 0 0 0 0 0 0 0 0 0 0 0 0 0 0 0
0 0 0 0 0 0 0 0 0 0 0 0 0 0 0 0 0 0 -1 0 0 0 0 0 0 0 nan nan nan nan nan 0 0 0 0 0 0 0 0 0 0 0 0 0 0 0 0 0 0 0 0 0 0 0 0 0 0 0 0 0 0 0 0 0 0 0 0 0 0 0 0 0 0 0 0 0 0 0 0 0 0 0 0 0 0 0
0 0 0 0 0 0 0 0 0 0 0 0 0 0 0 0 0 0 0 0 0 0 0 0 0 nan nan 0 nan nan 0 0 0 0 0 0 0 0 0 0 0 0 0 0 0 0 0 0 0 0 0 0 0 0 0 0 0 0 0 0 0 0 0 0 0 0 0 0 0 0 0 0 0 0 0 0 0 0 0 0 0 0 0 0 0 0
0 0 0 0 0 -1 0 0 0 0 0 0 0 0 0 0 0 0 0 0 0 0 0 0 0 0 0 0 0 0 0 0 0 0 0 0 0 0 0 0 0 0 0 0 0 0 0 0 0 0 0 0 0 0 0 0 0 0 0 0 0 0 0 0 0 0 0 0 0 0 0 0 0 0 0 0 0 0 0 0 0 0 0 0 0 0
0 0 0 -0 -0 -0 -0 0 0 0 0 0 0 0 0 0 0 0 0 0 0 0 0 0 0 0 0 0 0 0 0 0 0 0 0 0 0 0 0 0 0 0 0 0 0 0 0 0 0 0 0 0 0 0 0 0 0 0 0 0 0 0 0 0 0 0 0 0 0 0 0 0 0 0 0 0 0 0 0 0 0 0 0 0 0 0
-0 -1 -0 0 0 0 0 0 0 0 0 0 0 0 0 0 0 0 0 0 0 0 0 0 0 0 0 0 0 0 0 0 0 0 0 0 0 0 0 0 0 0 0 0 0 0 0 0 0 0 0 0 0 0 0 0 0 0 0 0 0 0 0 0 0 0 0 0 0 0 0 0 0 0 0 0 0 0 0 0 0 0 0 0 0 0
-0 -1 0 0 0 0 0 0 0 0 0 0 0 0 0 0 0 0 0 0 0 0 0 0 0 0 0 0 0 0 0 0 0 0 0 0 0 0 0 0 0 0 0 0 0 0 0 0 0 0 0 0 0 0 0 0 0 0 0 0 0 0 0 0 0 0 0 0 0 0 0 0 0 0 0 0 0 0 0 0 0 0 0 0 0 0
-0 0 0 0 0 0 0 0 0 0 0 0 0 0 0 0 0 0 0 0 0 0 0 0 0 0 0 0 0 0 0 0 0 0 0 0 0 0 0 0 0 0 0 0 0 0 0 0 0 0 0 0 0 0 0 0 0 0 0 0 0 0 0 0 0 0 0 0 0 0 0 0 0 0 0 0 0 0 0 0 0 0 0 0 0 0
0 0 0 0 0 0 0 0 0 0 0 0 0 0 0 0 0 0 0 0 0 0 0 0 0 0 0 0 0 0 0 0 0 0 0 0 0 0 0 0 0 0 0 0 0 0 0 0 0 0 0 0 0 0 0 0 0 0 0 0 0 0 0 0 0 0 0 0 0 0 0 0 0 0 0 0 0 0 0 0 0 0 0 0 0 0
0 0 0 0 0 0 0 0 0 0 0 0 0 0 0 0 0 0 0 0 0 0 -0 0 0 0 0 0 0 0 0 0 0 0 -0 0 0 0 0 0 0 0 0 0 0 0 0 0 0 0 0 0 0 0 0 0 0 0 0 0 0 0 0 0 0 0 0 0 0 0 0 0 0 0 0 0 0 0 0 0 0 0 0 0 0 0
-1 -0 0 0 0 0 0 0 0 0 0 0 0 0 0 0 0 0 0 0 0 0 0 -0 -0 0 0 0 0 0 0 0 0 0 -0 0 0 0 0 0 0 0 0 0 0 0 0 0 0 0 0 0 0 0 0 0 0 0 0 0 0 0 0 0 0 0 0 0 0 0 0 0 0 0 0 0 0 0 0 0 0 0 0 0 0 0
-0 0 0 0 0 0 0 0 0 0 0 0 0 0 0 -0 -1 -1 -0 -0 -0 0 0 0 0 0 0 0 0 0 0 0 0 0 0 0 0 0 0 0 0 0 0 0 0 0 0 0 0 0 0 0 0 0 0 0 0 0 0 0 0 0 0 0 0 0 0 0 0 0 0 0 0 0 0 0 0 0 0 0 0 0 0 0 0 0
0 0 0 0 0 0 0 0 0 0 0 0 0 0 0 0 -1 -1 -0 -0 -0 0 0 0 0 0 0 0 0 0 0 0 -0 -0 -1 0 0 0 0 0 0 0 0 0 0 0 0 0 0 0 0 0 0 0 0 0 0 0 0 0 0 0 0 0 0 0 0 0 0 0 0 0 0 0 0 0 0 0 0 0 0 0 0 0 0 0
0 0 0 0 0 0 0 0 0 0 0 0 -0 -0 0 -0 -0 -0 0 0 0 0 0 0 0 0 0 0 0 0 0 0 -2 -2 -1 0 0 0 0 0 0 0 0 0 0 0 0 0 0 0 0 0 0 0 0 0 0 0 0 0 0 0 0 0 0 0 0 0 0 0 0 0 0 0 0 0 0 0 0 0 0 0 0 0 0 0
0 0 0 0 0 0 0 0 0 0 0 -0 -0 -0 0 -0 0 0 0 0 0 0 0 0 0 0 0 0 0 0 0 0 -0 -0 -0 0 0 0 0 0 0 0 0 0 0 0 0 0 0 0 0 0 0 0 0 0 0 0 0 0 0 0 0 0 0 0 0 0 0 0 0 0 0 0 0 0 0 0 0 0 0 0 0 0 0 0
0 0 0 0 0 0 0 0 0 0 0 -2 0 0 0 -0 0 0 0 0 0 0 0 0 0 0 0 0 0 0 0 0 0 0 -0 0 0 0 0 0 0 0 0 0 0 0 0 0 0 0 0 0 0 0 0 0 0 0 0 0 0 0 0 0 0 0 0 0 0 0 0 0 0 0 0 0 0 0 0 0 0 0 0 0 0 0
0 0 0 0 0 0 0 -0 -0 -0 0 -1 -0 -0 -1 -0 -0 -0 0 0 0 0 0 0 0 0 0 0 0 0 0 0 0 0 nan -0 0 0 0 0 0 0 0 0 0 0 0 0 0 0 0 0 0 0 0 0 0 0 0 0 0 0 0 0 0 0 0 0 0 0 0 0 0 0 0 0 0 0 0 0 0 0 0 0 0 0
0 0 0 0 0 -4 -2 0 -0 -0 -0 -0 -0 -0 -3 -0 -0 -0 0 0 0 0 0 0 0 0 0 0 0 0 0 0 0 0 0 0 0 0 0 0 0 0 0 0 0 0 0 0 0 0 0 0 0 0 0 0 0 0 0 0 0 0 0 0 0 0 0 0 0 0 0 0 0 0 0 0 0 0 0 0 0 0 0 0 0 0
0 0 0 0 0 -10 -0 0 0 0 0 0 0 0 -0 0 0 0 0 0 0 0 0 0 0 0 0 0 0 0 0 0 0 0 0 0 0 0 0 0 0 0 0 0 0 0 0 0 0 0 0 0 0 0 0 0 0 0 0 0 0 0 0 0 0 0 0 0 0 0 0 0 0 0 0 0 0 0 0 0 0 0 0 0 0 0
0 0 0 0 0 0 0 0 0 0 0 0 -0 -0 0 0 0 0 0 0 0 0 0 0 0 0 0 0 0 0 0 0 0 0 0 0 0 0 0 0 0 0 0 0 0 0 0 0 0 nan nan 0 0 0 0 0 0 0 0 0 0 0 0 0 0 0 0 0 0 0 0 0 0 0 0 0 0 0 0 0 0 0 0 0 0 0
0 0 0 0 0 0 0 0 0 0 0 0 0 0 0 0 0 0 0 0 0 0 0 0 0 0 0 0 0 0 0 0 0 0 0 0 0 0 0 0 0 0 0 0 0 0 0 0 0 0 nan nan 0 0 0 0 0 0 0 0 0 0 0 0 0 0 0 0 0 0 0 0 0 0 0 0 0 0 0 0 0 0 0 0 0 0
0 0 0 0 0 0 0 0 0 0 0 0 0 0 0 0 0 0 0 0 0 0 0 0 0 0 0 0 0 0 0 0 0 0 0 0 0 0 0 0 0 0 0 0 0 0 0 0 0 0 nan nan nan nan 0 0 0 0 0 0 0 0 0 0 0 0 0 0 0 0 0 0 0 0 0 0 0 0 0 0 0 0 0 0 0 0
0 0 0 0 0 0 0 0 0 0 0 0 0 0 0 0 0 0 0 0 0 0 0 0 0 0 0 0 0 0 0 0 0 0 0 0 0 0 0 -0 -0 0 -0 0 0 0 0 0 0 0 nan 0 0 0 0 0 0 0 0 0 0 0 0 0 0 0 0 0 0 0 0 0 0 0 0 0 0 0 0 0 0 0 0 0 0 -0
0 0 0 0 0 0 0 0 0 0 0 0 0 0 0 0 0 0 0 0 0 0 0 0 0 0 0 0 0 0 0 nan nan nan 0 0 0 0 0 0 0 0 0 0 0 0 0 0 0 0 0 0 0 0 nan 0 0 0 0 0 0 0 0 0 0 0 0 0 0 0 0 0 0 0 0 0 0 0 0 0 0 0 0 -2 -2 -1
0 0 0 0 0 0 0 0 0 0 0 0 0 0 0 0 0 0 0 0 0 0 0 0 0 0 0 0 0 0 nan nan nan nan 0 0 0 0 0 0 0 0 0 -0 -0 0 0 nan nan 0 0 0 0 0 0 nan nan nan nan nan nan 0 0 0 0 0 0 0 0 0 0 0 0 0 0 0 0 0 0 0 0 0 -2 -2 -2 -0
0 0 0 0 0 0 0 0 0 0 0 0 0 0 0 0 0 0 0 0 0 0 0 0 0 0 0 0 0 0 0 nan 0 0 0 0 0 0 0 0 0 0 0 -0 -0 -0 -0 0 0 0 0 0 0 0 0 0 0 0 0 nan nan nan 0 0 0 0 0 0 0 0 0 0 0 0 0 0 0 0 0 0 0 0 0 -0 -0 0
0 0 0 0 0 0 0 0 0 0 0 0 0 0 0 0 0 0 0 0 0 0 0 0 0 0 0 0 0 0 0 nan 0 0 0 -0 0 0 0 0 0 0 0 0 0 0 0 0 0 0 0 0 0 0 0 0 0 0 0 0 0 nan nan 0 0 0 0 0 0 0 0 0 0 0 0 0 0 0 0 0 0 0 0 -0 -0 0
0 0 0 0 0 0 0 0 0 0 0 0 0 0 0 0 0 0 0 0 0 0 0 0 0 0 0 0 0 0 0 nan 0 0 0 0 0 0 0 0 0 0 0 0 0 0 0 0 0 0 0 0 0 0 nan nan nan 0 0 0 0 nan nan nan nan nan nan nan nan nan 0 nan 0 0 0 0 0 0 0 0 0 0 0 0 0 0
0 0 0 0 0 0 0 0 0 0 0 0 0 0 0 0 0 0 0 0 0 0 -0 -1 -1 -0 -0 0 0 0 0 nan 0 0 0 -0 0 0 0 0 0 0 0 0 0 0 0 0 0 0 0 0 0 0 nan nan nan 0 0 0 0 nan nan nan nan nan nan nan nan nan nan nan nan nan 0 0 0 0 0 0 0 0 0 0 0 0
0 0 0 0 0 0 0 0 0 0 0 0 0 0 0 0 0 0 0 0 0 0 0 0 0 -0 nan -1 0 0 0 0 0 0 0 -0 0 0 nan 0 0 0 0 0 0 0 0 0 0 0 0 0 0 0 nan nan nan 0 nan 0 0 0 0 -0 -0 nan nan nan nan nan nan nan -0 -0 0 0 0 0 0 0 0 0 0 0 0 0
0 0 0 0 0 0 0 0 0 0 0 0 0 0 0 0 0 0 0 -1 -1 0 0 0 0 0 0 -1 -4 -4 0 0 0 0 0 -2 -0 -0 nan 0 0 0 nan 0 0 0 0 0 0 0 0 0 0 0 0 0 0 0 0 0 0 0 nan nan nan nan -0 0 0 0 -0 -0 0 0 0 0 0 0 0 0 0 0 0 0 0 0
0 0 0 0 0 0 0 0 0 0 0 0 0 0 0 0 0 0 0 -3 -3 -2 0 -0 -0 0 0 0 -7 -7 -6 0 -4 -4 -6 -6 nan nan -0 0 0 0 0 0 0 0 0 0 0 0 0 0 0 0 0 0 0 0 0 0 0 0 nan nan nan 0 0 0 0 0 0 0 -0 -0 -0 0 -0 -0 0 0 0 0 0 0 0 0
0 0 0 0 0 0 0 0 0 0 0 0 0 0 0 0 0 0 0 -0 -0 0 0 0 0 0 -9 -10 -1 -1 -2 -7 -14 -14 -14 -10 -4 -4 -1 -0 -0 0 0 0 0 0 0 0 0 0 0 0 0 0 0 0 0 0 0 0 0 0 nan nan nan 0 0 -0 0 0 0 nan -0 -0 nan nan -3 -3 -0 -1 -1 0 0 -0 -0 0
0 0 0 0 0 0 0 0 0 0 0 0 0 0 0 0 0 0 -0 0 0 0 0 0 0 0 0 0 0 0 -3 -19 -8 -8 -13 nan nan nan nan nan nan 0 0 0 0 0 -0 0 0 0 0 nan 0 0 0 0 0 0 0 0 0 0 nan nan nan nan nan nan nan nan -0 -0 -0 -0 -0 -3 -3 -3 -2 -4 -4 -1 -0 -2 -2 -1
0 0 0 0 0 0 0 0 0 0 0 0 0 0 0 0 0 0 0 0 0 0 0 0 0 0 0 0 0 0 0 -12 -4 -4 -16 nan nan nan nan nan nan nan -0 0 0 0 0 0 0 0 0 0 0 0 0 0 0 0 0 0 0 0 nan 0 0 -0 nan nan nan nan -0 0 0 0 -0 -0 -2 -2 -5 -3 -3 -1 -1 -1 -1 nan
0 0 0 0 0 0 0 0 0 0 0 0 0 0 -0 0 0 0 0 0 0 0 0 0 0 0 0 0 nan nan nan -1 -12 -12 nan nan nan nan nan nan nan nan nan 0 0 0 0 0 0 0 0 0 0 0 0 0 0 0 0 0 0 0 0 0 0 nan nan nan nan nan 0 0 0 0 -0 -1 -3 -3 -5 -4 -4 -0 0 -2 -2 -3
0 0 0 0 0 0 0 0 0 0 0 0 -0 -0 -0 0 0 0 0 0 0 0 0 0 0 0 0 0 nan nan nan nan -0 -0 -7 nan -21 -21 -11 nan nan nan nan nan nan 0 0 0 0 0 0 0 0 0 -0 0 0 0 0 0 0 0 0 nan nan nan nan nan nan nan -1 -0 -1 -1 -4 -2 -4 -4 -7 -2 -2 0 0 -1 -1 -1
0 0 0 0 0 0 0 0 0 0 0 0 0 0 0 0 0 0 0 0 0 0 0 0 0 0 0 0 0 0 nan nan nan nan nan -3 -17 -17 -12 -7 -7 nan nan nan nan 0 0 0 0 0 0 0 0 0 0 0 0 0 0 0 0 0 -0 nan nan nan nan nan nan nan nan -1 -5 -5 -3 -3 -5 -5 -10 -8 -8 -5 -0 -0 -0 -0
0 0 0 0 0 0 0 0 0 0 0 0 0 0 -0 0 0 0 0 0 0 0 0 0 0 0 0 0 0 0 0 nan nan nan nan -1 -4 -4 -12 -9 -9 -7 nan nan nan -0 -0 -0 -0 0 0 0 0 0 0 0 0 0 0 0 0 0 nan 0 0 nan nan nan nan nan nan -2 -2 -2 -1 -3 nan nan nan -8 -8 -5 -2 -1 -1 -0
0 0 0 0 0 0 0 0 0 0 0 0 0 0 0 0 0 0 0 0 0 0 0 0 0 0 0 0 0 0 0 0 nan nan nan 0 -2 -2 -5 -8 -8 -7 nan -1 -1 0 -0 -0 -0 0 -0 0 0 0 0 0 0 0 0 0 0 0 -0 -0 -0 nan nan nan nan nan -0 -2 -0 -0 -1 nan nan nan -8 -7 -7 -4 -2 -1 -1 -1
0 0 0 0 0 0 0 0 0 0 0 0 0 0 0 0 0 0 0 0 0 0 0 0 0 0 0 0 0 0 0 0 0 0 0 0 0 0 0 -2 -2 -5 -6 -3 -3 -1 -0 -0 -0 0 -0 -0 0 0 0 0 0 0 0 0 0 nan nan nan nan nan nan nan -1 -1 -0 -2 -1 -1 -2 -2 -3 -3 -7 -8 -8 -3 -1 -1 -1 -2
0 0 0 0 0 0 0 0 0 0 0 0 0 0 0 0 0 0 0 0 0 0 0 0 0 0 0 0 0 0 0 0 0 0 0 0 0 0 0 0 0 -0 -0 0 0 0 0 0 0 -0 0 0 0 0 0 0 0 0 0 0 0 nan nan nan nan nan nan -4 -5 -5 -3 -1 -0 -0 -1 -1 -0 -0 -6 -10 -10 -6 -4 -1 -1 -1
0 0 0 0 0 0 0 0 0 0 0 0 0 0 0 0 0 0 0 0 0 0 0 0 0 0 0 0 0 0 0 0 0 0 0 0 0 0 0 0 0 -0 -0 0 0 0 0 0 0 0 0 0 0 0 0 0 0 0 0 0 0 0 -0 -0 -0 -3 -2 -5 -8 -8 -4 -0 -1 -1 nan -1 -1 -1 -2 -11 -11 -10 -7 -2 -2 -1
0 0 0 0 0 0 0 0 0 0 0 0 0 0 0 0 0 0 0 0 0 0 0 0 0 0 0 0 0 0 0 0 0 0 0 0 0 0 0 0 0 0 -0 0 0 0 0 0 0 0 0 0 0 0 0 0 0 0 0 0 0 0 -0 -0 -0 -0 -0 -2 -7 -7 -4 -1 -2 -2 -0 0 -0 -0 -2 nan nan nan nan -7 -7 -5
0 0 0 0 0 0 0 0 0 0 0 0 0 0 0 0 0 0 0 0 0 0 0 0 0 0 0 0 0 0 0 0 0 0 0 0 0 0 0 0 0 0 0 -0 -0 0 0 0 0 0 0 0 -0 -0 0 0 0 0 0 0 0 0 -0 -0 -0 -0 0 -0 -4 -4 -3 -2 -0 -0 -0 -0 0 0 -3 nan nan nan nan nan nan -6
Wind_Speed
8 9 9 12 12 12 11 13 14 14 12 11 11 11 11 12 12 12 15 15 15 14 14 14 15 16 18 21 23 24 25 26 26 27 27 27 27 27 28 28 28 29 29 29 30 30 30 30 30 30 30 30 30 30 30 30 30 30 30 30 30 30 30 30 30 30 30 30 30 29 29 29 29 29 29 29 30 30 30 30 30 31 31 31 31 31
9 9 9 12 13 13 11 12 13 14 13 13 12 11 12 13 12 11 11 13 14 14 13 14 15 16 18 19 21 23 24 25 25 26 26 26 27 27 28 28 29 29 29 30 30 30 30 30 30 30 30 30 30 30 30 30 30 30 30 30 30 31 31 30 30 30 30 29 29 29 29 29 29 28 28 28 28 28 28 29 29 30 30 30 30 30
9 9 8 10 11 12 11 12 13 13 14 14 13 13 14 14 13 11 10 11 12 13 13 14 14 15 17 17 19 22 23 24 25 25 26 27 27 28 28 29 29 29 29 30 30 30 30 29 29 29 30 30 30 30 30 30 30 30 30 31 31 31 31 31 30 30 30 30 29 29 29 29 28 28 28 28 27 27 27 28 28 28 28 28 28 28
9 10 9 9 10 11 11 12 12 12 12 13 14 15 15 13 11 10 10 11 12 12 13 14 14 14 14 14 16 19 22 24 25 26 26 27 27 28 29 29 29 29 29 29 29 29 29 29 29 29 30 30 30 30 30 30 30 31 31 31 31 31 31 31 30 30 30 29 29 29 28 28 28 28 28 28 28 28 28 27 27 27 26 26 26 27
9 10 10 9 9 10 11 11 12 12 11 11 12 12 13 11 10 10 11 12 12 13 12 12 13 13 12 12 14 18 22 24 25 26 27 27 28 28 28 28 28 28 29 29 29 29 29 29 29 29 30 30 30 30 30 31 31 31 31 31 31 31 31 31 30 30 29 29 29 28 28 28 28 27 28 28 28 28 29 28 28 27 26 26 26 26
9 9 9 9 9 8 9 9 10 10 10 9 9 10 10 11 11 11 11 11 11 11 11 10 11 12 12 13 15 18 22 24 25 26 26 27 27 27 28 28 28 28 28 28 28 28 29 29 29 29 30 30 30 30 31 31 31 31 31 31 31 31 31 30 30 30 29 29 29 29 28 28 28 28 28 28 28 28 29 29 29 28 28 27 27 27
9 9 8 9 9 8 8 8 9 9 9 8 8 9 10 10 11 11 11 11 11 10 10 10 11 11 12 13 16 18 20 21 23 24 25 25 26 26 27 27 27 27 28 28 28 28 29 29 29 29 30 30 30 30 30 30 31 31 31 31 31 30 30 30 30 29 29 29 29 29 29 28 28 28 28 28 28 28 28 29 29 29 29 29 29 29
10 9 9 9 9 8 8 8 8 8 9 9 9 9 10 10 10 10 12 11 11 10 10 10 10 10 11 13 14 15 16 17 17 18 20 21 22 23 24 26 26 27 27 28 28 28 28 29 29 29 29 29 30 30 30 30 30 30 30 30 30 30 30 29 29 29 29 29 28 28 28 28 28 28 28 28 28 28 28 29 29 29 30 30 30 30
11 11 10 9 9 9 8 7 7 7 8 9 9 10 10 10 10 10 10 10 10 10 9 10 10 10 11 12 13 13 14 14 14 15 16 16 17 19 21 23 24 25 26 27 27 28 28 28 29 29 29 29 29 29 29 29 29 29 29 29 29 29 29 29 29 29 28 28 28 28 28 28 28 28 28 28 27 28 28 28 29 29 29 30 30 30
11 11 11 9 8 7 7 8 8 8 9 9 10 10 10 11 11 10 10 9 9 9 9 10 10 11 11 11 11 12 14 15 16 18 18 18 19 20 21 21 21 22 24 25 26 27 27 28 28 28 28 28 28 29 29 29 29 29 29 28 28 28 28 28 28 28 28 28 28 28 28 28 28 28 28 28 28 28 28 28 28 28 29 29 30 30
10 9 9 7 6 6 6 8 8 9 10 10 10 10 9 10 10 10 11 11 10 9 9 9 10 10 11 11 11 11 12 13 14 15 17 18 20 21 21 21 21 21 23 24 25 26 26 27 27 28 28 28 28 28 28 28 28 28 28 28 28 28 28 28 28 28 28 28 28 28 28 28 28 28 28 28 28 28 28 28 28 28 29 29 30 30
8 7 6 6 6 6 7 8 8 9 10 10 9 9 9 8 9 9 11 11 11 11 10 10 9 10 10 11 11 11 11 11 11 11 11 13 14 15 15 16 17 18 19 20 21 23 24 25 26 26 26 26 26 26 26 26 26 27 27 27 27 27 27 27 27 27 28 28 28 28 28 28 28 28 28 28 28 28 29 29 29 29 29 29 30 30
6 5 6 7 7 8 8 9 9 9 8 9 9 9 9 8 8 9 10 11 11 11 11 10 10 10 10 10 10 10 10 11 11 10 10 10 10 10 10 11 12 12 13 14 15 16 20 22 23 23 24 24 25 25 25 25 25 26 26 26 26 26 27 27 27 28 28 28 29 29 29 29 29 29 29 29 29 29 29 29 29 29 29 29 30 30
7 7 7 8 9 9 9 9 10 9 9 9 9 9 9 8 9 9 9 10 11 11 11 11 11 10 9 9 9 10 10 10 10 10 10 9 9 9 10 11 11 11 11 12 12 13 16 17 17 18 21 21 23 23 23 23 24 25 25 26 26 26 27 27 28 28 28 29 29 29 29 29 29 29 29 29 29 29 29 29 29 29 30 30 30 30
8 9 9 10 9 9 9 9 10 10 9 9 9 9 9 9 9 9 9 10 10 10 10 11 11 10 8 7 8 9 10 10 10 10 10 10 9 10 10 11 12 11 11 11 12 13 15 14 14 14 16 18 20 21 21 22 24 25 25 26 27 27 28 28 29 29 29 29 29 29 29 29 29 29 29 29 29 29 29 29 29 30 30 29 29 29
8 9 10 10 10 9 9 9 9 9 9 9 9 9 9 9 9 9 10 10 10 10 9 10 10 10 8 7 7 8 9 10 10 10 10 10 10 10 11 12 12 12 11 11 12 12 12 12 13 13 14 18 20 23 24 24 25 26 27 27 28 28 29 29 29 29 29 29 29 29 29 29 29 29 29 29 29 29 29 29 29 29 29 29 29 29
8 9 10 10 10 10 9 9 9 9 9 9 8 8 9 9 9 9 9 9 9 9 8 9 9 9 8 7 7 8 9 9 9 10 10 10 10 10 10 11 12 12 12 11 11 11 11 12 12 12 13 17 20 23 25 26 27 27 28 28 29 29 29 29 29 29 29 29 29 29 29 29 29 29 29 29 29 29 29 29 29 29 29 29 29 29
9 9 9 10 10 9 9 9 8 8 8 8 8 8 9 9 9 9 9 9 9 9 9 8 8 8 8 8 7 7 9 10 10 10 10 11 10 10 10 10 11 12 12 12 11 11 11 11 12 12 14 20 23 25 26 27 28 28 28 29 29 29 29 29 29 29 29 29 29 29 30 30 30 30 30 30 30 30 30 30 30 30 30 30 30 30
9 9 9 9 9 9 9 8 8 8 8 8 8 9 10 10 9 9 9 9 9 9 9 9 9 8 8 9 9 9 10 10 10 10 11 11 11 10 9 10 11 11 12 12 11 11 11 11 13 16 19 23 25 26 27 27 28 28 28 29 29 29 29 29 29 30 30 30 30 30 30 30 30 30 30 30 30 30 30 30 30 30 30 30 30 30
9 9 8 8 9 9 9 8 8 8 9 9 9 10 10 10 9 9 9 9 9 9 9 9 10 9 9 10 11 11 10 10 10 10 10 11 11 10 9 10 11 11 11 11 11 11 11 11 13 16 20 22 24 26 27 27 28 28 29 29 29 29 30 30 30 30 30 30 30 30 29 29 29 29 29 30 30 30 30 30 30 30 30 30 30 31
10 9 9 8 8 8 7 8 9 10 11 11 11 10 9 9 9 9 9 9 9 9 9 9 9 9 9 10 11 11 11 11 10 9 9 9 9 9 8 9 10 11 12 11 11 11 11 12 12 13 16 20 24 26 27 28 28 29 29 29 29 30 29 29 29 29 29 29 29 29 29 29 29 29 29 29 29 29 30 30 30 30 30 31 31 31
10 10 10 11 10 9 9 9 11 12 12 12 10 9 9 9 9 10 10 9 9 10 10 10 10 10 10 11 11 12 11 10 10 9 7 9 9 9 8 9 10 11 12 11 11 11 11 11 11 13 16 21 25 27 28 29 29 29 29 29 29 29 29 29 28 28 28 28 28 28 28 29 29 29 29 29 29 29 30 30 30 30 31 31 31 31
10 10 11 11 11 10 10 10 10 10 11 10 10 9 8 9 10 10 10 10 10 10 10 10 10 10 10 11 11 11 10 10 9 8 7 9 10 10 8 8 9 10 11 11 11 11 11 11 12 13 17 22 25 27 28 28 29 29 28 28 28 28 28 28 28 28 28 28 28 28 28 29 29 29 29 29 29 30 30 30 30 31 31 31 31 32
11 11 11 10 9 9 9 9 9 9 9 10 10 10 9 10 10 10 10 10 10 10 9 10 10 10 10 10 11 10 10 9 8 8 7 8 9 9 8 9 10 11 11 11 11 11 12 12 12 13 14 20 24 26 27 28 28 28 27 27 27 27 27 27 27 27 28 28 28 28 29 29 29 29 29 29 30 30 30 30 30 31 31 31 31 32
11 11 11 10 10 11 11 12 13 13 13 12 11 10 11 11 11 11 10 10 9 9 9 9 10 10 9 10 10 9 9 8 8 7 6 7 8 9 9 9 10 11 11 11 11 11 12 12 13 13 13 17 21 24 25 26 26 26 26 26 26 26 27 27 27 27 28 28 28 28 29 29 29 29 29 30 30 30 30 30 30 31 31 31 31 32
14 14 15 16 17 19 21 22 22 21 21 17 13 11 10 10 10 10 10 9 9 9 9 10 10 9 9 8 8 8 8 8 8 7 7 7 8 9 8 8 9 10 11 11 11 11 12 13 13 13 12 14 17 20 23 24 25 25 25 26 26 26 27 27 27 28 28 28 28 28 28 28 29 29 29 29 30 30 30 30 30 31 31 31 31 31
19 20 21 22 22 23 24 24 24 24 24 21 18 14 12 10 10 10 9 8 8 8 9 9 9 9 9 8 8 8 8 8 7 7 7 7 8 8 8 8 9 10 12 11 11 11 13 13 13 13 12 12 13 16 20 22 23 24 25 26 26 27 27 27 27 28 28 28 28 28 28 28 28 28 29 29 29 30 30 30 30 30 30 29 27 26
18 18 19 20 21 21 22 22 22 22 21 21 20 19 14 10 9 9 9 8 8 8 9 9 9 9 8 8 8 9 9 8 7 7 7 6 6 7 8 8 9 10 11 10 11 11 12 12 12 12 12 11 11 13 16 19 22 23 24 25 26 26 26 26 27 27 27 27 27 27 27 27 28 28 28 28 29 29 30 30 30 30 28 24 20 16
16 17 18 18 19 19 19 19 19 19 19 19 19 17 13 9 8 9 9 8 8 9 9 9 9 9 8 9 9 9 9 9 8 7 6 6 6 7 8 8 9 9 9 10 10 10 10 10 10 10 11 12 12 12 13 16 18 19 21 23 24 24 25 25 25 26 26 26 26 26 27 27 27 27 27 28 28 29 29 30 30 27 22 18 15 13
13 14 15 15 16 16 15 15 14 15 16 17 17 16 12 9 8 8 8 8 8 9 9 9 9 9 9 9 9 9 8 8 7 6 6 6 6 7 8 8 9 8 8 8 8 8 8 8 8 9 10 12 12 11 11 13 13 14 15 17 19 20 22 23 24 24 25 25 25 26 26 26 26 26 27 27 28 29 29 30 28 24 16 14 13 13
12 12 12 12 12 11 11 11 11 12 13 14 14 13 10 8 8 7 7 7 8 8 9 9 9 9 9 8 7 7 7 7 7 7 7 6 6 7 8 9 9 8 7 7 7 8 9 8 7 8 10 11 11 12 11 12 12 12 12 13 14 15 18 20 21 22 22 23 24 24 25 25 26 26 27 27 28 28 29 30 27 22 15 13 13 13
11 10 10 10 10 9 9 9 9 9 9 10 10 9 9 8 8 7 7 7 7 8 8 9 9 9 9 8 8 7 7 8 8 9 8 6 6 6 8 9 9 9 8 7 7 8 8 8 8 8 9 10 11 11 11 12 11 11 11 11 12 13 16 17 18 19 18 20 21 23 24 24 25 26 26 27 27 28 29 29 27 22 15 13 12 13
10 9 9 9 9 8 8 8 8 8 8 8 8 8 8 8 8 8 8 7 7 7 8 9 9 9 9 9 9 9 9 9 10 10 10 7 6 6 7 9 9 9 9 8 8 8 8 8 9 10 10 10 10 10 11 11 11 11 11 11 11 12 14 14 14 14 15 16 17 19 21 22 23 24 25 26 26 27 28 28 27 24 19 14 12 12
10 10 9 9 9 8 8 8 8 8 8 8 8 8 8 8 8 8 8 8 7 7 8 8 9 9 9 9 9 10 10 10 11 12 11 8 6 6 8 9 9 10 9 8 8 8 8 9 10 10 10 10 10 10 10 11 11 11 11 11 11 11 12 12 12 12 13 13 13 14 15 17 18 20 22 23 24 24 25 27 27 26 24 18 15 13
9 9 9 9 8 8 8 9 9 8 8 8 8 8 8 8 8 8 8 8 8 8 8 8 8 9 9 9 9 10 11 11 12 13 12 9 7 7 8 8 9 9 9 9 8 8 8 10 11 11 10 10 10 10 9 10 10 11 10 11 11 11 11 11 11 11 12 12 12 12 12 12 13 15 16 19 21 23 25 26 27 28 28 25 21 17
9 9 9 8 8 8 8 9 9 8 8 8 8 8 8 8 8 8 8 8 9 9 9 9 9 9 9 9 10 11 12 12 13 13 13 10 8 7 7 8 9 9 9 10 9 9 9 10 11 12 12 12 11 10 9 10 10 10 11 11 11 11 11 11 11 11 11 12 12 12 11 11 12 13 14 18 21 23 25 26 27 28 28 28 27 24
8 8 8 8 8 8 8 8 8 8 8 8 8 8 9 9 9 9 9 9 9 10 10 11 11 11 11 11 11 11 12 12 13 14 14 12 10 9 8 8 9 10 9 10 10 10 10 10 11 11 11 11 10 9 9 10 10 11 11 11 11 11 11 11 11 11 11 12 12 12 12 12 12 13 14 18 21 22 23 25 25 26 27 27 28 28
8 8 8 8 8 8 8 8 8 8 8 8 8 9 10 10 11 11 10 10 11 11 11 10 11 12 15 15 14 14 14 15 16 17 16 13 11 10 9 9 10 10 10 10 10 10 10 10 11 11 10 10 10 11 11 11 11 11 11 11 11 11 11 11 11 11 11 12 12 13 13 13 13 13 14 15 15 15 15 16 17 19 21 22 24 26
8 8 8 8 8 8 8 8 8 8 8 9 9 9 10 11 12 11 10 10 10 11 11 11 11 11 13 15 15 16 16 16 16 16 15 13 11 10 10 10 10 11 10 10 10 10 10 10 10 11 10 10 11 11 11 11 11 12 12 12 11 11 11 11 11 11 11 11 12 13 13 13 12 12 13 12 12 12 12 12 13 14 15 14 16 19
8 8 8 9 8 8 8 9 9 9 9 9 10 10 10 10 10 10 10 10 10 10 12 12 12 11 12 13 14 14 15 13 13 14 13 12 11 10 9 10 10 10 11 10 10 10 11 11 11 12 12 11 11 11 11 11 12 12 13 11 10 10 10 10 11 11 11 11 11 12 12 12 12 13 13 13 12 12 12 11 12 12 12 11 11 12
9 8 8 8 8 9 9 9 9 9 9 9 9 9 9 9 9 9 9 9 9 9 10 10 11 11 12 12 13 13 14 13 13 13 12 12 12 11 10 10 10 10 10 10 10 10 11 11 12 12 12 12 12 12 13 12 13 14 14 12 12 11 12 12 12 11 11 11 11 11 12 13 14 14 13 13 13 12 11 11 12 13 13 11 10 10
9 9 9 8 8 8 8 9 10 10 10 9 9 9 9 8 8 8 9 9 9 9 9 9 9 10 12 12 12 12 12 12 12 12 12 12 12 12 11 10 10 9 10 10 11 11 11 11 12 12 12 12 11 12 12 12 13 13 13 13 13 13 13 13 11 10 10 10 11 11 13 13 13 13 13 13 13 12 12 12 13 14 14 12 11 10
8 8 9 9 9 9 9 10 10 10 9 9 9 9 8 8 8 8 9 9 9 9 9 9 9 10 11 11 12 11 11 11 12 13 13 12 12 12 12 11 11 10 9 10 10 11 12 12 12 12 12 11 11 12 13 13 13 13 12 13 13 11 9 9 9 10 10 11 11 11 12 12 12 13 13 13 13 12 12 13 14 15 15 13 11 11
8 9 9 9 9 9 9 9 9 9 9 9 9 9 9 9 9 9 9 9 9 10 9 9 9 9 10 11 11 11 11 12 13 13 13 13 12 12 11 12 12 11 10 10 10 10 11 11 12 11 11 11 11 12 12 12 12 12 12 12 12 11 10 10 11 11 12 12 11 11 12 12 13 13 13 13 13 12 11 11 11 12 13 12 11 10
8 8 9 8 8 8 8 8 9 9 9 9 9 10 9 9 9 9 8 9 9 10 9 9 8 8 9 10 10 10 10 11 11 11 11 12 13 14 12 11 10 10 10 10 10 10 10 11 11 11 11 11 11 12 12 12 12 13 13 13 12 12 12 12 12 12 12 12 12 12 13 14 14 14 13 13 12 12 11 11 11 11 11 10 10 10
8 8 9 8 8 8 9 9 9 9 9 10 10 10 10 9 9 9 9 9 10 9 9 9 8 8 9 10 10 10 10 10 10 10 10 10 11 11 11 10 9 9 9 9 10 10 11 11 11 11 11 11 11 12 12 12 12 12 12 12 12 12 12 12 11 11 12 12 12 13 14 15 14 14 13 13 13 12 11 10 10 10 10 10 10 10
8 9 9 9 9 9 9 9 9 9 9 10 10 10 10 9 9 9 9 9 9 9 9 9 9 9 10 10 10 10 10 11 11 10 10 10 11 11 10 10 10 10 9 9 10 11 11 12 12 11 11 11 11 12 12 12 12 12 12 12 11 11 11 11 11 11 11 12 12 13 15 15 14 14 14 14 13 12 11 10 10 9 9 9 9 10
9 9 9 9 9 9 9 9 9 9 9 10 10 10 10 10 10 10 10 9 9 9 9 9 9 10 10 11 11 11 11 11 11 11 11 10 10 10 10 9 9 9 10 10 11 12 12 12 13 13 12 11 11 12 12 11 11 11 11 11 11 11 12 12 12 11 11 12 13 13 14 13 13 14 15 14 13 12 12 11 10 9 8 8 9 9
9 9 9 9 9 10 10 9 9 9 10 10 10 10 10 11 11 11 10 9 9 9 9 9 10 10 10 11 11 11 12 12 11 11 10 10 10 10 10 10 10 9 9 10 10 11 11 11 12 12 12 11 11 12 12 11 11 11 11 11 11 11 12 12 12 12 12 12 13 13 13 12 12 13 14 14 14 14 13 12 11 9 8 8 8 9
9 9 9 9 9 10 10 10 10 10 10 11 11 11 10 10 10 10 9 9 9 9 9 9 10 10 11 11 11 11 12 11 11 10 10 10 10 10 10 10 10 10 10 9 9 9 9 9 9 10 11 11 11 11 11 11 11 11 11 10 10 10 11 11 12 12 12 12 12 13 13 13 12 12 12 12 13 14 14 13 12 10 9 9 9 10
9 9 9 9 9 10 10 10 10 10 10 11 11 11 10 10 10 9 9 9 9 9 9 10 10 10 11 11 12 12 12 11 11 11 11 10 10 10 10 10 10 10 10 9 9 9 8 8 7 7 8 9 10 10 9 10 10 11 11 10 10 10 10 11 11 12 12 12 12 12 12 12 12 11 11 11 12 13 14 13 13 13 12 11 11 11
Wind_Direction
299 300 301 301 300 298 296 298 298 298 299 299 299 300 302 301 300 300 300 300 299 298 297 294 292 290 288 288 289 290 292 294 295 296 297 296 296 295 295 294 294 294 294 295 295 295 295 295 295 294 294 293 293 292 291 290 289 289 288 288 288 288 288 288 287 286 286 285 285 284 283 282 281 280 279 278 277 276 275 275 274 274 274 273 274 274
297 298 299 300 299 297 295 299 300 300 300 301 301 301 302 301 300 300 299 298 297 296 294 291 289 288 288 289 292 293 295 295 296 296 296 296 296 296 296 296 296 295 295 295 295 295 294 294 293 292 292 291 290 289 289 288 288 287 287 288 288 288 288 288 288 287 287 286 286 286 285 285 284 283 282 280 279 277 276 275 274 273 273 273 273 274
301 299 298 299 298 298 298 301 300 299 299 299 300 300 300 300 300 299 298 296 294 292 289 289 289 290 291 293 295 295 295 296 296 296 297 297 297 297 297 296 296 295 295 294 293 293 292 291 291 290 290 289 289 288 288 288 288 288 288 288 289 288 288 288 288 287 287 287 286 286 286 286 286 285 284 283 282 280 278 276 275 274 274 274 275 275
300 299 300 300 298 297 297 299 299 298 297 297 297 298 299 299 298 297 295 293 291 289 287 288 290 293 294 295 295 295 296 297 297 298 298 298 298 297 296 296 295 294 293 292 292 291 290 290 290 289 289 289 289 289 288 288 288 289 289 289 289 288 288 288 287 287 286 286 286 286 286 286 286 285 285 285 284 282 280 278 276 275 275 275 275 275
296 296 299 299 296 294 294 295 296 296 296 296 297 298 299 297 295 293 291 289 288 289 290 292 293 295 295 295 296 297 298 298 299 299 299 298 297 296 295 294 293 292 292 291 291 291 291 291 290 290 290 290 290 290 289 289 289 289 289 289 288 288 288 287 287 287 286 287 286 286 286 286 285 285 284 284 283 283 282 280 278 277 276 276 275 274
292 292 294 293 292 292 294 294 295 296 296 296 297 298 297 295 293 291 289 289 290 292 293 294 295 295 296 296 298 299 300 300 299 299 298 297 295 294 293 293 292 292 292 292 292 292 292 292 292 292 291 291 291 290 290 290 290 289 289 289 289 288 288 288 288 288 287 287 287 287 286 286 285 284 283 282 282 282 281 280 279 278 277 277 276 275
288 286 287 287 288 289 290 292 296 298 300 299 298 295 292 291 291 291 292 294 295 295 296 296 296 297 298 300 301 301 301 300 299 297 296 295 294 293 293 293 293 293 293 293 293 293 293 293 293 292 292 291 291 290 290 290 290 290 289 289 289 289 289 289 289 288 288 287 287 286 286 285 284 283 282 281 281 280 280 279 279 278 278 277 276 275
288 286 285 286 288 289 288 290 295 299 300 299 297 295 293 291 292 292 294 295 296 298 299 300 301 301 301 302 302 302 300 299 297 296 295 294 293 293 293 294 294 294 294 294 294 294 293 293 292 292 291 291 290 290 290 290 289 289 289 289 289 289 289 289 288 288 288 287 287 286 285 284 283 282 281 281 280 279 279 278 277 277 276 276 275 274
286 287 286 286 288 291 293 293 294 294 293 294 295 297 298 297 296 295 296 297 300 302 304 305 304 303 302 302 301 299 297 295 294 294 294 294 294 294 294 294 294 294 294 294 294 293 293 292 292 291 291 290 290 290 290 289 289 289 289 289 289 289 288 288 288 288 287 287 286 286 285 284 283 282 281 281 280 279 278 277 276 276 275 274 274 273
281 283 285 286 288 291 293 296 295 294 292 292 293 295 298 299 300 301 302 304 306 307 306 306 304 303 301 299 297 296 294 293 293 293 293 293 293 293 293 294 294 294 294 294 293 293 292 292 292 291 291 291 290 290 290 289 289 289 289 289 288 288 288 288 288 288 287 287 286 286 285 284 283 282 281 280 279 278 277 276 275 275 274 273 272 272
281 282 284 289 291 288 285 291 295 298 298 296 293 293 293 298 303 307 309 308 308 307 304 302 301 300 300 299 298 296 295 294 293 293 292 293 293 293 293 294 293 293 294 294 293 293 293 293 292 292 291 291 290 290 289 289 289 289 288 288 288 288 288 288 287 287 287 286 285 284 283 282 282 281 280 279 278 277 276 275 274 273 272 272 271 270
284 288 290 293 294 293 291 294 297 299 301 299 297 296 297 302 308 310 309 308 307 306 303 300 298 297 298 299 299 298 296 294 293 293 294 294 295 295 295 295 294 294 295 294 294 293 293 293 292 291 291 290 289 289 289 288 288 288 288 288 288 287 287 287 286 286 285 284 283 283 282 281 280 279 278 277 276 275 274 273 272 271 271 270 269 268
290 294 295 297 298 300 301 302 302 301 301 300 301 303 306 310 312 310 305 303 303 303 302 300 297 296 296 296 296 296 295 294 293 294 296 297 298 299 298 297 296 296 296 295 294 293 293 292 292 291 290 290 289 288 288 288 287 287 287 287 287 286 286 285 285 284 284 283 282 282 281 280 280 279 278 277 276 274 273 272 271 270 269 268 267 267
301 302 301 300 301 301 301 301 300 299 300 301 302 305 308 311 310 306 301 299 298 299 299 297 296 296 296 294 293 293 293 294 295 296 296 297 299 300 300 298 297 296 296 294 293 292 293 293 292 291 290 289 289 288 288 287 287 287 287 286 286 286 286 285 285 285 284 284 283 283 282 281 281 280 279 277 276 275 274 273 271 270 269 268 267 266
307 306 302 300 298 298 298 298 297 298 300 303 305 307 308 307 305 303 300 297 298 298 298 296 295 294 293 294 295 295 295 295 296 297 297 297 298 300 300 298 296 295 295 293 293 292 294 293 291 290 289 288 288 288 288 287 287 287 287 287 287 287 287 286 286 286 286 285 285 284 283 283 282 281 279 278 277 276 275 274 273 271 270 269 268 267
304 302 298 296 296 295 295 296 297 299 302 305 307 307 306 304 303 301 298 297 298 299 300 299 299 297 294 295 297 298 298 297 297 297 299 299 300 301 302 298 296 295 294 293 292 292 293 291 289 287 287 287 287 288 289 289 289 289 289 289 289 288 288 288 288 287 287 286 286 285 284 283 282 281 280 279 278 277 276 275 274 273 272 271 270 269
298 295 293 293 294 295 297 298 300 302 304 305 304 303 301 300 299 298 297 297 298 299 300 302 303 303 302 301 299 299 301 300 300 299 299 298 299 300 300 297 295 293 293 292 291 291 291 289 288 287 286 287 288 289 290 291 291 291 290 290 290 289 289 289 288 288 287 287 286 285 284 284 283 282 281 280 279 278 277 276 275 274 273 272 271 270
292 292 292 293 295 298 302 302 302 302 301 301 300 299 297 296 295 295 295 296 297 299 301 302 301 301 302 303 303 305 308 305 303 301 300 297 297 298 298 294 291 290 290 290 289 289 289 288 287 287 288 290 290 291 291 291 291 291 291 291 290 290 290 289 289 288 288 287 286 286 285 284 283 282 282 280 280 279 278 277 276 275 274 273 272 270
294 295 297 298 298 298 299 298 297 297 298 299 300 299 297 295 295 294 294 296 298 300 302 300 298 296 296 296 299 305 310 308 305 301 298 296 295 296 297 293 289 288 288 288 289 289 289 288 289 289 290 291 291 291 291 291 291 291 291 291 291 291 290 290 289 288 287 286 285 285 284 283 282 282 281 280 279 278 277 276 276 275 274 272 271 270
295 295 293 293 292 291 289 289 292 295 298 300 300 299 296 295 296 296 297 299 299 299 298 295 293 293 294 294 298 303 309 308 303 297 293 293 293 295 296 293 290 288 287 288 290 292 292 292 291 290 290 290 291 291 291 292 292 292 292 292 291 291 290 289 288 287 286 285 284 283 282 282 281 280 280 279 278 277 276 276 275 274 273 272 271 270
290 287 284 284 285 286 287 290 294 297 299 300 299 296 294 297 299 301 302 302 300 297 295 291 291 293 296 296 298 301 305 303 299 294 291 291 291 292 294 293 291 290 290 291 293 294 293 292 290 290 290 291 292 292 293 292 292 292 291 291 290 289 289 288 287 287 286 285 285 284 283 282 281 280 280 279 278 277 276 275 274 273 272 271 270 269
286 285 285 286 286 286 288 292 295 297 298 297 296 296 299 303 304 303 302 301 298 295 293 291 292 293 295 293 294 296 299 296 293 291 292 291 291 292 295 295 294 293 292 293 294 294 293 292 292 292 292 293 293 293 292 292 291 291 290 290 290 289 289 289 288 288 288 287 286 285 284 283 282 281 280 279 278 277 276 275 274 272 271 270 269 268
284 285 287 288 288 288 290 292 293 293 294 294 295 297 301 302 301 300 300 297 295 293 292 291 290 290 289 288 289 291 292 290 289 289 290 289 291 294 300 299 296 292 291 293 295 296 296 295 294 294 293 292 292 291 291 291 290 290 290 290 290 290 289 289 289 289 288 287 287 286 285 284 283 282 281 280 279 278 277 276 275 274 272 271 270 269
285 286 288 288 289 288 288 288 289 291 294 296 297 298 298 296 295 293 293 291 290 289 289 289 288 288 287 288 289 290 290 291 291 291 289 288 291 295 301 300 296 293 291 295 298 300 299 296 295 293 292 291 291 291 290 290 290 290 290 290 290 290 289 289 289 288 288 287 287 286 286 285 285 284 283 282 281 280 279 278 277 276 275 273 272 271
287 288 288 288 288 287 288 290 293 297 299 300 300 299 297 295 293 291 290 288 287 287 288 289 290 291 292 293 293 291 292 295 295 294 291 288 290 293 298 299 297 295 295 297 299 300 298 296 294 293 291 291 290 291 291 290 291 291 291 291 290 290 290 289 289 288 287 287 287 286 286 286 285 284 284 283 282 281 280 279 278 277 275 275 274 272
288 288 288 289 290 291 293 295 297 299 299 299 299 299 299 298 296 294 291 289 289 290 292 292 292 292 294 294 293 293 295 297 296 293 290 289 291 293 296 298 297 296 296 298 299 299 297 295 294 293 292 291 291 291 291 291 292 292 292 292 291 291 290 290 289 289 288 287 286 286 285 284 284 283 282 281 280 279 278 277 277 276 275 274 273 272
289 289 289 291 293 295 297 298 298 299 299 300 300 301 301 300 298 295 291 292 294 295 294 293 292 293 294 293 293 294 297 297 295 292 290 290 290 292 295 298 299 298 298 298 298 297 295 294 294 293 292 291 291 292 292 293 294 294 294 293 292 292 291 290 289 288 287 286 286 285 284 284 283 282 282 281 280 279 278 277 277 276 275 274 273 271
291 291 293 295 297 299 300 300 300 301 301 302 302 302 301 299 296 293 291 295 297 296 292 291 292 293 295 295 295 296 297 294 293 292 294 292 290 291 296 300 301 300 299 297 296 294 292 291 291 291 292 292 293 294 295 296 296 296 295 294 292 291 290 289 288 287 287 286 286 285 284 284 284 283 283 282 282 281 280 279 279 278 276 275 272 269
295 297 299 301 303 303 303 303 302 302 302 302 301 301 299 295 291 289 291 295 295 293 289 289 290 292 293 295 296 295 292 290 292 298 305 298 291 290 297 300 301 300 301 299 296 293 289 288 289 292 293 296 297 297 297 298 297 296 295 293 292 290 289 288 287 287 286 286 286 286 285 285 285 284 284 284 283 283 282 281 281 279 277 274 271 268
305 307 307 307 307 306 305 304 302 301 301 300 299 298 296 291 286 286 289 291 290 289 289 290 292 293 295 296 296 293 289 289 297 309 315 303 294 292 299 299 300 300 302 302 301 298 293 290 291 294 297 299 299 298 298 298 297 296 294 293 292 290 289 288 287 287 287 287 287 287 287 287 286 286 285 284 284 283 282 282 281 280 278 274 270 267
313 312 310 309 308 306 304 302 301 299 299 298 298 297 294 290 286 285 286 286 286 287 289 291 292 293 294 295 295 292 289 293 303 312 315 301 294 294 299 298 298 299 301 302 303 302 302 300 298 298 299 299 298 298 297 296 296 295 294 293 292 290 289 289 289 289 289 289 289 289 289 289 288 286 285 284 283 282 282 281 281 279 276 273 270 267
313 311 309 307 306 304 302 300 299 298 298 298 298 296 294 291 288 286 284 283 284 284 286 287 288 289 289 288 286 285 287 292 301 307 309 299 292 292 296 296 296 297 298 295 294 294 298 302 304 304 302 299 297 296 296 296 295 294 294 292 291 290 290 291 291 291 291 291 291 290 290 289 288 287 285 284 282 281 280 280 279 278 275 271 269 267
309 307 305 303 302 301 299 299 299 299 299 298 298 296 295 292 290 287 285 283 282 282 283 285 286 286 286 283 281 280 282 287 295 301 303 298 292 291 294 295 295 296 297 292 287 285 286 292 298 301 301 299 297 297 297 296 295 294 293 292 291 291 292 294 293 293 292 292 292 291 290 289 287 286 284 283 281 280 279 278 277 275 273 270 267 266
305 302 301 301 300 300 299 299 299 299 299 298 298 297 296 294 292 290 287 285 283 280 279 281 282 284 285 284 282 281 282 285 292 297 301 296 292 290 293 293 294 295 296 293 289 286 282 287 292 296 299 298 297 296 296 295 295 294 293 292 292 293 295 296 295 294 293 293 291 290 289 287 285 284 283 282 280 279 278 277 276 274 272 269 267 265
302 301 301 301 301 301 301 301 301 300 299 299 299 298 298 297 295 293 290 287 284 281 277 276 276 278 280 282 282 283 283 287 292 296 297 293 289 288 291 290 291 293 294 292 291 290 287 288 290 293 296 297 296 295 294 294 295 295 294 293 293 293 294 295 295 294 293 292 290 288 286 285 283 282 281 280 280 279 279 278 276 275 273 270 268 266
301 301 302 303 303 303 303 303 303 303 302 301 300 300 299 298 296 293 291 289 286 283 280 277 274 272 271 273 275 278 281 286 290 292 292 288 286 285 286 287 289 290 290 290 290 289 289 290 291 292 293 294 294 295 294 295 296 296 295 294 293 292 292 292 292 292 292 290 288 286 285 284 283 282 280 280 280 280 280 279 278 276 274 271 269 267
301 301 302 304 305 305 304 304 304 304 304 303 302 301 300 297 295 293 291 288 286 285 283 280 276 272 268 267 268 270 275 281 284 285 284 282 280 279 279 282 284 285 285 286 287 289 289 289 290 291 290 289 291 294 298 300 299 297 295 294 294 293 293 292 291 289 287 286 285 285 285 285 285 284 283 282 282 282 281 280 278 276 274 272 269 267
302 302 304 305 305 305 304 304 304 303 303 302 301 300 299 296 294 292 290 288 286 284 282 281 278 276 273 272 271 270 272 275 277 278 278 277 275 274 275 278 280 280 279 280 282 285 286 288 290 291 290 288 289 291 295 298 298 297 295 295 294 292 291 290 289 287 285 285 285 286 286 285 285 284 284 284 284 283 281 279 276 274 272 271 268 266
303 304 305 306 306 305 304 303 302 302 301 300 298 297 296 293 291 290 288 286 285 283 283 283 283 282 280 278 277 276 275 275 275 275 275 273 271 270 272 275 277 278 277 276 277 278 280 282 285 287 289 291 291 291 292 293 294 296 297 297 294 290 287 288 288 288 287 286 286 286 286 285 285 285 285 284 284 283 282 281 279 276 274 272 269 267
304 305 304 305 305 304 303 301 301 300 299 298 296 294 293 291 290 289 287 287 287 288 288 288 288 287 286 285 284 283 281 279 277 275 274 269 266 264 266 269 273 275 276 275 274 274 275 277 279 281 283 286 289 291 292 292 293 295 299 298 295 292 291 292 291 290 287 285 284 284 285 286 287 287 285 284 283 282 281 281 280 279 277 274 272 270
305 304 304 304 304 302 300 299 299 299 298 296 295 293 292 292 292 293 293 293 293 293 293 293 293 292 291 290 289 288 286 282 279 276 273 268 264 261 261 263 267 270 273 274 273 273 273 275 277 279 281 282 285 287 288 289 291 294 295 293 292 292 294 293 290 288 286 285 284 285 287 288 288 287 285 284 282 280 277 277 277 278 276 272 269 267
304 304 304 303 303 302 301 300 299 298 297 295 293 292 291 292 293 295 297 297 298 298 298 298 298 298 298 296 294 292 289 286 282 279 275 269 265 261 259 260 261 265 269 272 274 274 273 274 277 280 282 285 286 287 287 288 289 290 290 289 290 292 293 290 288 287 289 290 290 290 289 288 288 287 287 286 284 281 277 274 273 273 273 269 265 261
304 303 302 302 301 300 301 300 300 299 299 297 294 293 292 293 293 294 296 297 298 299 300 299 299 299 298 297 297 297 294 291 289 286 284 278 273 268 264 262 261 263 266 271 274 276 276 276 278 280 283 285 285 285 286 289 290 290 287 287 290 292 293 293 294 295 295 293 292 290 288 288 288 289 289 288 286 284 280 276 272 270 267 266 263 259
302 301 300 299 299 299 301 301 301 301 300 298 296 296 296 296 297 297 296 296 297 298 300 299 298 296 293 293 295 297 298 297 296 294 291 287 282 277 272 269 267 266 265 268 273 278 282 281 280 281 283 284 285 285 286 288 289 288 286 285 284 282 281 288 295 298 297 295 292 290 289 290 291 292 291 289 287 284 281 277 273 270 266 263 260 258
299 298 298 299 300 302 303 302 301 300 299 297 297 298 299 300 300 300 299 297 297 298 299 299 298 295 292 292 294 296 298 299 299 298 295 292 289 286 282 279 275 272 268 266 269 273 279 281 283 284 284 283 282 282 283 284 285 285 283 283 282 280 278 284 289 293 294 294 294 293 293 294 295 295 293 291 289 286 282 280 278 276 272 267 263 260
299 300 300 301 302 302 301 301 300 299 299 298 299 299 301 302 302 301 299 298 297 297 297 297 295 292 291 293 295 296 296 297 298 298 299 298 297 295 292 287 282 277 271 268 268 269 271 274 279 282 285 283 280 278 278 280 282 284 284 285 286 286 286 287 288 290 291 293 294 295 297 298 297 295 293 292 291 290 286 282 280 279 277 273 269 265
302 302 302 302 302 301 300 300 300 300 299 299 300 301 302 303 303 302 300 299 298 296 296 295 292 290 290 292 293 295 295 296 297 298 299 300 300 299 297 293 288 283 277 274 272 271 270 270 273 276 279 281 281 280 279 279 280 282 284 288 289 290 290 290 291 292 293 294 295 297 301 302 300 297 294 295 295 294 292 289 285 281 279 277 275 273
303 303 302 302 302 301 299 300 300 301 300 300 301 301 302 304 304 303 301 300 298 296 295 294 292 291 291 291 292 293 293 294 296 297 299 300 300 300 300 298 296 291 285 281 277 275 274 272 271 270 271 273 276 278 280 279 279 280 283 287 289 290 290 291 294 296 297 296 295 297 300 301 300 299 298 298 298 298 298 297 294 289 284 280 278 278
302 301 301 301 300 300 299 300 301 301 301 301 302 302 303 303 303 303 300 299 298 295 294 292 292 292 292 292 293 293 294 294 295 296 298 299 301 301 302 302 301 298 295 290 286 283 280 277 273 270 266 265 267 271 275 277 279 280 283 285 287 289 291 293 296 299 300 299 298 298 297 296 295 295 296 298 299 301 303 304 302 298 292 285 283 282
301 300 299 299 299 299 299 300 301 301 301 301 301 302 303 303 303 302 299 298 296 294 292 291 291 291 292 293 293 295 295 296 296 297 298 299 301 302 303 303 304 303 302 299 297 296 293 288 281 274 266 262 261 264 271 277 280 282 283 285 287 290 293 295 298 300 302 302 301 300 298 295 294 293 294 297 300 303 306 307 307 305 302 298 294 292
301 299 298 298 298 298 299 300 300 300 300 300 300 300 301 301 301 301 299 298 296 294 292 291 290 291 291 293 294 295 296 297 297 297 298 300 301 302 302 303 304 306 306 307 308 308 306 304 301 293 281 271 266 265 272 281 286 289 290 290 291 293 294 295 298 301 303 302 302 300 298 297 297 298 300 302 304 306 309 310 311 311 310 309 307 304